DLH2471 EGLL-LOWW

Flight info

Callsign DLH2471
Flight time 1h 47m
Altitude 35000
Route DET1J DET L6 DVR UL9 KONAN DCT KOK DCT MATUG DCT GUBAX DCT BARSU DCT EKSOS DCT LULAR DCT RUDAP DCT BUDEX BUDEX2W
Aircraft A359/H-SDE2E3GHIJ3J4J5LM1ORWXY/LB1D1

Departure

Time 2026-04-24 18:55
Airport London Heathrow Airport (EGLL)

Arrival

Time 2026-04-24 20:42
Airport Vienna International Airport (LOWW)
Time Latitude Longitude Altitude Speed Heading
2026-04-24 18:54 51.46096 -0.40742 2504 ft 189 kts 111°
2026-04-24 18:55 51.44448 -0.37221 4242 ft 204 kts 132°
2026-04-24 18:55 51.43456 -0.35552 5117 ft 209 kts 132°
2026-04-24 18:55 51.42461 -0.33815 5996 ft 215 kts 131°
2026-04-24 18:56 51.41459 -0.31992 6879 ft 221 kts 131°
2026-04-24 18:56 51.40479 -0.30060 7713 ft 228 kts 126°
2026-04-24 18:56 51.40059 -0.27562 8517 ft 240 kts 87°
2026-04-24 18:56 51.40688 -0.25035 9315 ft 256 kts 50°
2026-04-24 18:57 51.42188 -0.23450 10222 ft 269 kts 15°
2026-04-24 18:57 51.44074 -0.23415 11029 ft 282 kts 343°
2026-04-24 18:57 51.45777 -0.25032 11870 ft 293 kts 312°
2026-04-24 18:57 51.46753 -0.27897 12823 ft 300 kts 282°
2026-04-24 18:58 51.46735 -0.31259 13685 ft 309 kts 253°
2026-04-24 18:58 51.45692 -0.34306 14452 ft 320 kts 226°
2026-04-24 18:58 51.43832 -0.36327 15153 ft 333 kts 201°
2026-04-24 18:58 51.41534 -0.36901 15827 ft 350 kts 178°
2026-04-24 18:59 51.39133 -0.35887 16494 ft 368 kts 155°
2026-04-24 18:59 51.37064 -0.33368 17228 ft 384 kts 133°
2026-04-24 18:59 51.35655 -0.29683 18073 ft 396 kts 112°
2026-04-24 18:59 51.35111 -0.25326 18859 ft 406 kts 92°
2026-04-24 19:00 51.35516 -0.20825 19563 ft 415 kts 72°
2026-04-24 19:00 51.36742 -0.16620 20282 ft 421 kts 61°
2026-04-24 19:00 51.37682 -0.12101 20967 ft 428 kts 81°
2026-04-24 19:00 51.37675 -0.07348 21680 ft 433 kts 100°
2026-04-24 19:01 51.37020 -0.02612 22341 ft 439 kts 105°
2026-04-24 19:01 51.36336 0.02210 22983 ft 446 kts 103°
2026-04-24 19:01 51.35737 0.07102 23614 ft 452 kts 101°
2026-04-24 19:01 51.35186 0.12095 24167 ft 458 kts 100°
2026-04-24 19:02 51.34838 0.15449 24560 ft 461 kts 99°
2026-04-24 19:02 51.34196 0.22254 25376 ft 465 kts 98°
2026-04-24 19:02 51.33753 0.27245 25948 ft 469 kts 98°
2026-04-24 19:02 51.33313 0.32254 26533 ft 471 kts 98°
2026-04-24 19:03 51.32835 0.37624 27205 ft 474 kts 98°
2026-04-24 19:03 51.32379 0.42652 27734 ft 478 kts 98°
2026-04-24 19:03 51.31881 0.48045 28289 ft 482 kts 98°
2026-04-24 19:03 51.31383 0.53375 28832 ft 487 kts 98°
2026-04-24 19:04 51.30876 0.58756 29380 ft 491 kts 98°
2026-04-24 19:04 51.30364 0.64153 29879 ft 495 kts 98°
2026-04-24 19:04 51.29843 0.69625 30411 ft 499 kts 98°
2026-04-24 19:04 51.29314 0.75149 30842 ft 502 kts 98°
2026-04-24 19:05 51.28748 0.81044 31314 ft 506 kts 99°
2026-04-24 19:05 51.28239 0.86307 31497 ft 514 kts 99°
2026-04-24 19:05 51.27684 0.92018 31373 ft 528 kts 99°
2026-04-24 19:05 51.27111 0.97882 31259 ft 538 kts 99°
2026-04-24 19:06 51.26529 1.03809 31256 ft 543 kts 99°
2026-04-24 19:06 51.25346 1.15765 31260 ft 546 kts 99°
2026-04-24 19:07 51.24150 1.27737 31256 ft 547 kts 99°
2026-04-24 19:07 51.23144 1.37694 31262 ft 546 kts 99°
2026-04-24 19:07 51.22336 1.45630 31915 ft 535 kts 99°
2026-04-24 19:08 51.21741 1.51439 32617 ft 526 kts 99°
2026-04-24 19:08 51.21151 1.57172 33212 ft 522 kts 99°
2026-04-24 19:08 51.20560 1.62883 33596 ft 523 kts 100°
2026-04-24 19:08 51.19966 1.68598 33966 ft 523 kts 100°
2026-04-24 19:09 51.19383 1.74174 34407 ft 521 kts 100°
2026-04-24 19:09 51.18765 1.80060 34849 ft 519 kts 100°
2026-04-24 19:09 51.18170 1.85690 35173 ft 520 kts 100°
2026-04-24 19:10 51.17188 1.94933 35261 ft 531 kts 100°
2026-04-24 19:10 51.15942 2.06564 35257 ft 537 kts 100°
2026-04-24 19:11 51.14675 2.18277 35253 ft 536 kts 100°
2026-04-24 19:11 51.13433 2.29656 35251 ft 520 kts 100°
2026-04-24 19:12 51.12197 2.40868 35249 ft 517 kts 101°
2026-04-24 19:12 51.10944 2.52124 35256 ft 517 kts 101°
2026-04-24 19:13 51.09883 2.61577 35260 ft 516 kts 101°
2026-04-24 19:13 51.08173 2.74634 35263 ft 516 kts 105°
2026-04-24 19:14 51.06278 2.85391 35260 ft 515 kts 107°
2026-04-24 19:14 51.04636 2.94644 35260 ft 515 kts 106°
2026-04-24 19:15 51.02768 3.05544 35255 ft 515 kts 106°
2026-04-24 19:15 51.00918 3.16519 35250 ft 514 kts 106°
2026-04-24 19:16 50.98134 3.32958 35233 ft 514 kts 106°
2026-04-24 19:16 50.96252 3.43964 35229 ft 513 kts 106°
2026-04-24 19:17 50.94374 3.54871 35226 ft 513 kts 106°
2026-04-24 19:17 50.92485 3.65767 35226 ft 512 kts 107°
2026-04-24 19:18 50.90577 3.76706 35228 ft 512 kts 107°
2026-04-24 19:18 50.88686 3.87485 35225 ft 512 kts 107°
2026-04-24 19:19 50.86757 3.98413 35228 ft 511 kts 107°
2026-04-24 19:19 50.84835 4.09235 35232 ft 511 kts 107°
2026-04-24 19:20 50.82901 4.20061 35233 ft 511 kts 107°
2026-04-24 19:20 50.80866 4.31384 35236 ft 511 kts 107°
2026-04-24 19:21 50.78993 4.41739 35237 ft 510 kts 107°
2026-04-24 19:21 50.77015 4.52612 35235 ft 510 kts 107°
2026-04-24 19:22 50.75052 4.63345 35232 ft 510 kts 107°
2026-04-24 19:22 50.73042 4.74261 35230 ft 509 kts 107°
2026-04-24 19:23 50.71089 4.84816 35220 ft 509 kts 107°
2026-04-24 19:23 50.69092 4.95542 35215 ft 509 kts 108°
2026-04-24 19:24 50.67091 5.06227 35211 ft 509 kts 108°
2026-04-24 19:24 50.65073 5.16942 35211 ft 509 kts 108°
2026-04-24 19:25 50.63040 5.27696 35212 ft 510 kts 108°
2026-04-24 19:25 50.61531 5.38310 35211 ft 511 kts 102°
2026-04-24 19:26 50.60224 5.49381 35210 ft 512 kts 101°
2026-04-24 19:26 50.58951 5.60413 35212 ft 512 kts 102°
2026-04-24 19:27 50.57637 5.71546 35210 ft 513 kts 102°
2026-04-24 19:27 50.56333 5.82377 35210 ft 513 kts 102°
2026-04-24 19:28 50.54972 5.93549 35207 ft 513 kts 102°
2026-04-24 19:28 50.53609 6.04657 35202 ft 514 kts 102°
2026-04-24 19:29 50.51558 6.21212 35196 ft 515 kts 103°
2026-04-24 19:30 50.50177 6.32238 35195 ft 515 kts 103°
2026-04-24 19:30 50.48785 6.43268 35192 ft 515 kts 103°
2026-04-24 19:31 50.47372 6.54379 35191 ft 515 kts 103°
2026-04-24 19:31 50.45933 6.65594 35195 ft 515 kts 103°
2026-04-24 19:32 50.44493 6.76653 35193 ft 515 kts 104°
2026-04-24 19:32 50.43154 6.85814 35191 ft 515 kts 105°
2026-04-24 19:33 50.41459 6.96837 35190 ft 516 kts 105°
2026-04-24 19:33 50.39779 7.07838 35189 ft 516 kts 105°
2026-04-24 19:34 50.38119 7.18773 35193 ft 516 kts 105°
2026-04-24 19:34 50.36453 7.29725 35188 ft 517 kts 105°
2026-04-24 19:35 50.34776 7.40673 35189 ft 517 kts 105°
2026-04-24 19:35 50.33095 7.51564 35187 ft 517 kts 105°
2026-04-24 19:36 50.31378 7.62607 35190 ft 517 kts 105°
2026-04-24 19:36 50.29655 7.73623 35187 ft 517 kts 105°
2026-04-24 19:37 50.27927 7.84587 35185 ft 517 kts 105°
2026-04-24 19:37 50.26193 7.95522 35180 ft 517 kts 105°
2026-04-24 19:38 50.24454 8.06414 35169 ft 517 kts 105°
2026-04-24 19:38 50.22667 8.17531 35169 ft 517 kts 106°
2026-04-24 19:39 50.20919 8.28344 35159 ft 517 kts 106°
2026-04-24 19:39 50.19134 8.39302 35158 ft 517 kts 106°
2026-04-24 19:40 50.17345 8.50218 35156 ft 517 kts 106°
2026-04-24 19:40 50.15555 8.61066 35156 ft 517 kts 106°
2026-04-24 19:41 50.13755 8.71915 35156 ft 517 kts 106°
2026-04-24 19:41 50.11881 8.83132 35155 ft 517 kts 106°
2026-04-24 19:42 50.10119 8.93610 35153 ft 517 kts 106°
2026-04-24 19:42 50.08288 9.04436 35154 ft 517 kts 106°
2026-04-24 19:43 50.06451 9.15223 35150 ft 517 kts 106°
2026-04-24 19:43 50.04570 9.26209 35152 ft 517 kts 106°
2026-04-24 19:44 50.02716 9.36961 35149 ft 517 kts 106°
2026-04-24 19:44 50.01150 9.45997 35147 ft 517 kts 106°
2026-04-24 19:45 49.98949 9.58619 35146 ft 517 kts 106°
2026-04-24 19:45 49.97054 9.69414 35142 ft 517 kts 106°
2026-04-24 19:46 49.95130 9.80303 35144 ft 517 kts 106°
2026-04-24 19:46 49.93218 9.91062 35140 ft 517 kts 107°
2026-04-24 19:47 49.91300 10.01793 35139 ft 517 kts 107°
2026-04-24 19:47 49.89697 10.10709 35138 ft 517 kts 107°
2026-04-24 19:48 49.87742 10.21533 35139 ft 517 kts 107°
2026-04-24 19:48 49.84811 10.37630 35144 ft 517 kts 107°
2026-04-24 19:49 49.80866 10.59080 35160 ft 517 kts 107°
2026-04-24 19:50 49.76873 10.80534 35156 ft 517 kts 107°
2026-04-24 19:51 49.73860 10.96565 35139 ft 517 kts 107°
2026-04-24 19:52 49.70830 11.12542 35130 ft 517 kts 107°
2026-04-24 19:52 49.68794 11.23211 35127 ft 517 kts 107°
2026-04-24 19:53 49.66751 11.33850 35129 ft 517 kts 107°
2026-04-24 19:54 49.63607 11.49858 35114 ft 518 kts 108°
2026-04-24 19:54 49.61374 11.60446 35105 ft 518 kts 108°
2026-04-24 19:55 49.59499 11.69289 35101 ft 518 kts 108°
2026-04-24 19:55 49.56895 11.81640 35094 ft 518 kts 108°
2026-04-24 19:56 49.54672 11.92172 35095 ft 517 kts 108°
2026-04-24 19:56 49.52438 12.02706 35098 ft 517 kts 108°
2026-04-24 19:57 49.50193 12.13231 35100 ft 517 kts 108°
2026-04-24 19:57 49.47929 12.23793 35106 ft 517 kts 108°
2026-04-24 19:58 49.45665 12.34300 35103 ft 517 kts 108°
2026-04-24 19:58 49.43412 12.44702 35102 ft 517 kts 108°
2026-04-24 19:59 49.41167 12.55010 35103 ft 517 kts 108°
2026-04-24 19:59 49.38854 12.65578 35108 ft 517 kts 108°
2026-04-24 20:00 49.36555 12.76034 35102 ft 517 kts 108°
2026-04-24 20:00 49.34113 12.86486 35102 ft 517 kts 110°
2026-04-24 20:01 49.31534 12.96780 35101 ft 517 kts 110°
2026-04-24 20:01 49.28964 13.07053 35104 ft 517 kts 110°
2026-04-24 20:02 49.26840 13.15610 35102 ft 516 kts 110°
2026-04-24 20:02 49.23866 13.27605 35107 ft 516 kts 110°
2026-04-24 20:03 49.21162 13.37761 35107 ft 515 kts 112°
2026-04-24 20:03 49.18404 13.47893 35105 ft 515 kts 112°
2026-04-24 20:04 49.15661 13.58004 35110 ft 515 kts 112°
2026-04-24 20:04 49.12907 13.68133 35110 ft 515 kts 112°
2026-04-24 20:05 49.10156 13.78215 35117 ft 515 kts 112°
2026-04-24 20:05 49.07393 13.88297 35103 ft 515 kts 112°
2026-04-24 20:06 49.04600 13.98445 35105 ft 515 kts 112°
2026-04-24 20:06 49.01823 14.08492 35101 ft 514 kts 112°
2026-04-24 20:07 48.99512 14.16822 35097 ft 514 kts 112°
2026-04-24 20:07 48.96261 14.28488 35089 ft 514 kts 112°
2026-04-24 20:08 48.92673 14.38002 35085 ft 515 kts 127°
2026-04-24 20:08 48.88294 14.46626 35084 ft 516 kts 127°
2026-04-24 20:09 48.83906 14.55254 35084 ft 515 kts 127°
2026-04-24 20:09 48.79523 14.63876 35083 ft 515 kts 127°
2026-04-24 20:10 48.75139 14.72478 35082 ft 515 kts 127°
2026-04-24 20:10 48.71415 14.79772 35082 ft 515 kts 127°
2026-04-24 20:10 48.69226 14.84048 34964 ft 510 kts 127°
2026-04-24 20:11 48.67036 14.88311 34221 ft 509 kts 127°
2026-04-24 20:11 48.64865 14.92533 32999 ft 505 kts 127°
2026-04-24 20:11 48.62703 14.96729 31258 ft 503 kts 127°
2026-04-24 20:11 48.60565 15.00891 29286 ft 501 kts 127°
2026-04-24 20:12 48.58718 15.05474 27032 ft 499 kts 112°
2026-04-24 20:12 48.57669 15.10333 25185 ft 491 kts 102°
2026-04-24 20:12 48.56860 15.15340 23459 ft 483 kts 101°
2026-04-24 20:12 48.56067 15.20210 21585 ft 474 kts 102°
2026-04-24 20:13 48.55268 15.24995 19909 ft 464 kts 102°
2026-04-24 20:13 48.54481 15.29615 18962 ft 441 kts 102°
2026-04-24 20:13 48.53730 15.33970 18529 ft 425 kts 102°
2026-04-24 20:13 48.52988 15.38267 17876 ft 422 kts 102°
2026-04-24 20:14 48.52260 15.42541 17205 ft 419 kts 101°
2026-04-24 20:14 48.51828 15.46855 16760 ft 416 kts 92°
2026-04-24 20:14 48.51581 15.51271 16442 ft 426 kts 92°
2026-04-24 20:14 48.51342 15.55735 16150 ft 427 kts 92°
2026-04-24 20:15 48.51093 15.60244 16051 ft 426 kts 92°
2026-04-24 20:15 48.50846 15.64644 15529 ft 419 kts 92°
2026-04-24 20:15 48.50600 15.68992 15087 ft 417 kts 92°
2026-04-24 20:15 48.50347 15.73361 14712 ft 417 kts 92°
2026-04-24 20:16 48.50092 15.77706 14369 ft 415 kts 92°
2026-04-24 20:16 48.49837 15.82007 14031 ft 413 kts 92°
2026-04-24 20:16 48.49580 15.86327 13560 ft 410 kts 92°
2026-04-24 20:16 48.49325 15.90617 13179 ft 408 kts 92°
2026-04-24 20:17 48.49070 15.94864 12832 ft 406 kts 92°
2026-04-24 20:17 48.48558 16.03291 12173 ft 402 kts 92°
2026-04-24 20:17 48.48039 16.07425 11892 ft 401 kts 107°
2026-04-24 20:18 48.47240 16.09954 11731 ft 393 kts 121°
2026-04-24 20:18 48.44827 16.13577 11392 ft 350 kts 145°
2026-04-24 20:18 48.42855 16.15538 11144 ft 325 kts 147°
2026-04-24 20:18 48.41006 16.17345 10912 ft 318 kts 147°
2026-04-24 20:19 48.39165 16.19173 10665 ft 316 kts 146°
2026-04-24 20:19 48.37344 16.21001 10375 ft 313 kts 146°
2026-04-24 20:19 48.35517 16.22848 10138 ft 313 kts 146°
2026-04-24 20:19 48.33706 16.24683 9694 ft 314 kts 146°
2026-04-24 20:20 48.31903 16.26513 9362 ft 311 kts 146°
2026-04-24 20:20 48.30118 16.28325 9109 ft 310 kts 146°
2026-04-24 20:20 48.28336 16.30132 8849 ft 308 kts 147°
2026-04-24 20:20 48.26556 16.31936 8588 ft 307 kts 147°
2026-04-24 20:21 48.24793 16.33721 8340 ft 306 kts 147°
2026-04-24 20:21 48.23033 16.35504 8082 ft 305 kts 147°
2026-04-24 20:21 48.21243 16.37316 7815 ft 304 kts 147°
2026-04-24 20:21 48.19509 16.39071 7582 ft 303 kts 147°
2026-04-24 20:22 48.17697 16.40903 7326 ft 301 kts 147°
2026-04-24 20:22 48.15917 16.42701 7072 ft 300 kts 148°
2026-04-24 20:22 48.14238 16.44395 6822 ft 299 kts 148°
2026-04-24 20:22 48.12515 16.46130 6582 ft 298 kts 148°
2026-04-24 20:23 48.10803 16.47854 6331 ft 297 kts 148°
2026-04-24 20:23 48.09082 16.49581 6080 ft 296 kts 148°
2026-04-24 20:23 48.07382 16.51286 5832 ft 295 kts 147°
2026-04-24 20:23 48.05684 16.52990 5594 ft 294 kts 147°
2026-04-24 20:24 48.04558 16.54121 5427 ft 294 kts 147°
2026-04-24 20:24 48.02312 16.56371 5092 ft 292 kts 147°
2026-04-24 20:24 48.00623 16.58063 4877 ft 291 kts 147°
2026-04-24 20:24 47.98947 16.59741 4620 ft 290 kts 146°
2026-04-24 20:25 47.97284 16.61405 4386 ft 288 kts 146°
2026-04-24 20:25 47.95626 16.63063 4204 ft 282 kts 146°
2026-04-24 20:25 47.94033 16.64655 4085 ft 271 kts 146°
2026-04-24 20:25 47.92541 16.66247 3966 ft 259 kts 138°
2026-04-24 20:26 47.91592 16.68400 3851 ft 243 kts 102°
2026-04-24 20:26 47.91617 16.70785 3750 ft 222 kts 67°
2026-04-24 20:26 47.92390 16.72635 3638 ft 203 kts 38°
2026-04-24 20:26 47.93559 16.73646 3501 ft 189 kts 12°
2026-04-24 20:27 47.94821 16.73782 3355 ft 178 kts 349°
2026-04-24 20:27 47.95949 16.73162 3173 ft 171 kts 327°
2026-04-24 20:27 47.96802 16.71945 2968 ft 171 kts 306°
2026-04-24 20:27 47.97266 16.70322 2766 ft 173 kts 284°
2026-04-24 20:28 47.97344 16.68503 2516 ft 174 kts 273°
2026-04-24 20:28 47.97310 16.66763 2265 ft 174 kts 272°
2026-04-24 20:28 47.97369 16.64903 1979 ft 172 kts 284°
2026-04-24 20:28 47.97804 16.63342 1960 ft 156 kts 310°
2026-04-24 20:29 47.98301 16.62647 2061 ft 136 kts 327°
2026-04-24 20:29 47.99401 16.62244 2060 ft 131 kts
2026-04-24 20:29 48.00275 16.62399 1974 ft 119 kts
2026-04-24 20:29 48.01053 16.62393 1752 ft 105 kts 358°
2026-04-24 20:30 48.01788 16.62255 1699 ft 108 kts 347°
2026-04-24 20:30 48.02587 16.61922 1737 ft 158 kts 342°
2026-04-24 20:30 48.03473 16.61458 2635 ft 139 kts 340°
2026-04-24 20:30 48.04455 16.61010 3220 ft 151 kts 343°
2026-04-24 20:31 48.05543 16.61068 3752 ft 171 kts 17°
2026-04-24 20:31 48.06577 16.62179 3910 ft 192 kts 40°
2026-04-24 20:31 48.07419 16.63611 3901 ft 177 kts 44°
2026-04-24 20:31 48.08193 16.65031 3909 ft 175 kts 45°
2026-04-24 20:32 48.08955 16.66449 3911 ft 174 kts 45°
2026-04-24 20:32 48.09715 16.67868 3917 ft 178 kts 45°
2026-04-24 20:32 48.10520 16.69347 3919 ft 187 kts 45°
2026-04-24 20:32 48.11352 16.70869 3915 ft 189 kts 45°
2026-04-24 20:33 48.12183 16.72406 3910 ft 191 kts 46°
2026-04-24 20:33 48.12833 16.74168 3918 ft 199 kts 65°
2026-04-24 20:33 48.13144 16.76288 3916 ft 219 kts 85°
2026-04-24 20:33 48.12901 16.78590 3918 ft 231 kts 108°
2026-04-24 20:34 48.12216 16.80863 3905 ft 246 kts 114°
2026-04-24 20:34 48.11428 16.83186 3884 ft 251 kts 115°
2026-04-24 20:34 48.10630 16.85510 3902 ft 252 kts 115°
2026-04-24 20:34 48.09831 16.87830 3905 ft 251 kts 115°
2026-04-24 20:35 48.09022 16.90141 3902 ft 251 kts 117°
2026-04-24 20:35 48.07883 16.92118 3741 ft 256 kts 143°
2026-04-24 20:35 48.06268 16.93172 3201 ft 253 kts 172°
2026-04-24 20:35 48.04582 16.92939 2926 ft 243 kts 203°
2026-04-24 20:36 48.03237 16.91521 2884 ft 230 kts 234°
2026-04-24 20:36 48.02591 16.89480 2902 ft 210 kts 260°
2026-04-24 20:36 48.02316 16.87396 2920 ft 206 kts 265°
2026-04-24 20:36 48.02091 16.85261 2922 ft 205 kts 265°
2026-04-24 20:37 48.01883 16.83231 2900 ft 195 kts 265°
2026-04-24 20:37 48.01743 16.81909 2899 ft 189 kts 265°
2026-04-24 20:37 48.01539 16.79982 2904 ft 186 kts 265°
2026-04-24 20:37 48.01474 16.78069 2906 ft 183 kts 282°
2026-04-24 20:38 48.01869 16.76305 2906 ft 179 kts 305°
2026-04-24 20:38 48.02731 16.75013 2911 ft 175 kts 323°
2026-04-24 20:38 48.03699 16.73922 2913 ft 175 kts 325°
2026-04-24 20:38 48.04693 16.72844 2909 ft 175 kts 325°
2026-04-24 20:39 48.05661 16.71748 2774 ft 172 kts 319°
2026-04-24 20:39 48.06479 16.70542 2550 ft 160 kts 316°
2026-04-24 20:39 48.07205 16.69264 2366 ft 160 kts 309°
2026-04-24 20:39 48.07774 16.67903 2158 ft 149 kts 301°
2026-04-24 20:40 48.08177 16.66542 2030 ft 137 kts 295°
2026-04-24 20:40 48.08484 16.65208 1824 ft 135 kts 291°
2026-04-24 20:40 48.08801 16.63889 1631 ft 134 kts 297°
2026-04-24 20:40 48.09229 16.62652 1448 ft 134 kts 301°
2026-04-24 20:41 48.09668 16.61420 1218 ft 135 kts 298°
2026-04-24 20:41 48.10083 16.60161 1046 ft 135 kts 294°
2026-04-24 20:41 48.10480 16.58880 823 ft 135 kts 294°
2026-04-24 20:41 48.10890 16.57615 656 ft 135 kts 295°
2026-04-24 20:42 48.11273 16.56435 622 ft 100 kts 296°
2026-04-24 20:42 48.11451 16.55889 619 ft 31 kts 296°
2026-04-24 20:42 48.11547 16.55599 623 ft 31 kts 296°
2026-04-24 20:42 48.11668 16.55336 601 ft 26 kts 315°
2026-04-24 20:43 48.11777 16.55182 599 ft 8 kts 323°
2026-04-24 20:43 48.11793 16.55168 599 ft 0 kts 330°
2026-04-24 20:45 48.11799 16.55163 599 ft 6 kts 331°
2026-04-24 20:46 48.11857 16.55148 599 ft 8 kts 12°
2026-04-24 20:46 48.11877 16.55198 599 ft 5 kts 90°
2026-04-24 20:46 48.11855 16.55289 598 ft 14 kts 116°
2026-04-24 20:46 48.11800 16.55460 599 ft 22 kts 116°
2026-04-24 20:47 48.11768 16.55588 602 ft 2 kts 62°
2026-04-24 20:47 48.11804 16.55626 600 ft 12 kts 48°
2026-04-24 20:47 48.11826 16.55781 597 ft 17 kts 72°
2026-04-24 20:47 48.11894 16.55897 602 ft 8 kts 39°
2026-04-24 20:48 48.11924 16.55911 603 ft 2 kts 332°
2026-04-24 20:48 48.11932 16.55877 601 ft 7 kts 281°
2026-04-24 20:48 48.11941 16.55814 599 ft 0 kts 299°